Weather History for KCMX - November, 2012

Change the Weather History Date:

Saturday, November 10, 2012

  Actual Average Record
Temperature  
Mean Temperature 37 °F -  
Max Temperature 45 °F 37 °F - (-1)
Min Temperature 30 °F 27 °F - (-1)
Degree Days  
Heating Degree Days 28    
Moisture  
Dew Point 38 °F    
Average Humidity 97    
Maximum Humidity 100    
Minimum Humidity 79    
Precipitation  
Precipitation 0.67 in - - ()
Sea Level Pressure  
Sea Level Pressure 29.92 in    
Wind  
Wind Speed 14 mph (East)    
Max Wind Speed 24 mph    
Max Gust Speed 36 mph    
Visibility 4 miles    
Events Fog , Rain , Snow , Thunderstorm    
Averages and records for this station are not official NWS values.
T = Trace of Precipitation, MM = Missing Value Source: NWS Daily Summary

Daily Weather History Graph

Daily Weather History Graph

Search for Another Location

Airport or City:

Trip Planner

Search our weather history database for the weather conditions in past years. The results will help you decide how hot, cold, wet, or windy it might be!

Date:

Astronomy

Nov. 10, 2012 Rise Set
Actual Time 7:51 AM EST 5:24 PM EST
Civil Twilight 7:18 AM EST 5:56 PM EST
Nautical Twilight 6:41 AM EST 6:33 PM EST
Astronomical Twilight 6:05 AM EST 7:09 PM EST
Moon 3:42 AM EST (11/10) 3:21 PM EST (11/10)
Length of Visible Light 10h 38m
Length of Day
9h 32m
Waning Crescent, 14% of the Moon is Illuminated
Nov 10
Waning Crescent
Nov 13
New
Nov 20
First Quarter
Nov 28
Full
Dec 6
Last Quarter

Hourly Weather History & Observations

Time (EST) Temp. Windchill Dew Point Humidity Pressure Visibility Wind Dir Wind Speed Gust Speed Precip Events Conditions
12:53 AM 32.0 °F 23.6 °F 26.1 °F 79% 30.22 in 10.0 mi ENE 10.4 mph - N/A   Overcast
1:53 AM 30.9 °F 22.8 °F 26.1 °F 82% 30.20 in 10.0 mi ENE 9.2 mph - N/A   Overcast
2:32 AM 30.2 °F 24.3 °F 26.6 °F 86% 30.17 in 3.0 mi ENE 5.8 mph - 0.00 in Snow Light Snow
2:53 AM 30.9 °F 23.5 °F 28.0 °F 89% 30.20 in 5.0 mi NE 8.1 mph - 0.00 in Snow Light Snow
3:37 AM 32.0 °F 24.2 °F 28.4 °F 87% 30.14 in 10.0 mi ENE 9.2 mph - 0.00 in   Overcast
3:53 AM 32.0 °F 24.8 °F 28.9 °F 88% 30.17 in 10.0 mi ENE 8.1 mph - 0.00 in   Overcast
4:01 AM 32.0 °F 24.8 °F 30.2 °F 93% 30.12 in 5.0 mi ENE 8.1 mph - 0.00 in Snow Light Snow
4:10 AM 32.0 °F 24.8 °F 30.2 °F 93% 30.12 in 4.0 mi ENE 8.1 mph - 0.00 in Snow Light Snow
4:34 AM 33.8 °F 26.4 °F 32.0 °F 93% 30.11 in 9.0 mi ENE 9.2 mph - 0.00 in   Overcast
4:53 AM 35.1 °F 26.9 °F 33.1 °F 92% 30.14 in 10.0 mi East 11.5 mph - 0.00 in   Overcast
5:53 AM 37.0 °F 28.1 °F 34.0 °F 89% 30.12 in 10.0 mi East 15.0 mph 24.2 mph N/A   Overcast
6:39 AM 37.4 °F 28.5 °F 35.6 °F 93% 30.07 in 10.0 mi East 15.0 mph 21.9 mph N/A   Overcast
6:53 AM 37.0 °F 27.7 °F 35.1 °F 93% 30.11 in 10.0 mi East 16.1 mph 23.0 mph N/A   Overcast
7:53 AM 37.9 °F 30.0 °F 36.0 °F 93% 30.09 in 10.0 mi East 12.7 mph 20.7 mph N/A   Overcast
8:53 AM 39.0 °F 31.8 °F 37.9 °F 96% 30.09 in 6.0 mi East 11.5 mph 23.0 mph 0.02 in Rain Light Rain
9:53 AM 39.9 °F 31.1 °F 39.0 °F 97% 30.06 in 4.0 mi ESE 17.3 mph 23.0 mph 0.04 in Rain Light Rain
10:53 AM 39.9 °F 31.4 °F 39.0 °F 97% 30.04 in 7.0 mi ESE 16.1 mph 26.5 mph 0.00 in   Overcast
11:27 AM 39.2 °F 30.5 °F 39.2 °F 100% 29.99 in 2.5 mi ESE 16.1 mph 26.5 mph 0.02 in Rain Light Rain
11:34 AM 39.2 °F 31.2 °F 39.2 °F 100% 29.99 in 4.0 mi ESE 13.8 mph 26.5 mph 0.02 in Rain Light Rain
11:53 AM 39.0 °F 29.9 °F 39.0 °F 100% 30.01 in 4.0 mi ESE 17.3 mph 25.3 mph 0.03 in Rain Light Rain
12:53 PM 39.0 °F 29.0 °F 39.0 °F 100% 29.94 in 7.0 mi East 20.7 mph 28.8 mph 0.03 in Rain Light Rain
1:53 PM 39.9 °F 30.5 °F 39.0 °F 97% 29.92 in 2.5 mi ESE 19.6 mph 27.6 mph 0.08 in Rain Rain
2:03 PM 39.2 °F 29.3 °F 39.2 °F 100% 29.86 in 2.0 mi East 20.7 mph 31.1 mph 0.04 in Rain , Thunderstorm Heavy Rain
2:24 PM 39.2 °F 29.6 °F 39.2 °F 100% 29.85 in 1.5 mi East 19.6 mph 28.8 mph 0.13 in Rain Heavy Rain
2:34 PM 39.2 °F 29.3 °F 39.2 °F 100% 29.86 in 1.5 mi ESE 20.7 mph 27.6 mph 0.18 in Rain , Thunderstorm Rain
2:53 PM 41.0 °F 31.6 °F 39.9 °F 96% 29.86 in 1.0 mi ESE 20.7 mph 32.2 mph 0.39 in Rain , Thunderstorm Heavy Thunderstorms and Rain
3:06 PM 39.2 °F 29.0 °F 39.2 °F 100% 29.82 in 3.0 mi ESE 21.9 mph 32.2 mph 0.04 in Rain , Thunderstorm Light Thunderstorms and Rain
3:53 PM 41.0 °F 32.8 °F 41.0 °F 100% 29.86 in 6.0 mi ESE 16.1 mph 24.2 mph 0.05 in Rain , Thunderstorm Light Rain
4:08 PM 41.0 °F 32.2 °F 39.2 °F 93% 29.81 in 8.0 mi East 18.4 mph 28.8 mph 0.01 in Rain Light Rain
4:15 PM 39.2 °F 28.5 °F 39.2 °F 100% 29.81 in 6.0 mi ESE 24.2 mph 32.2 mph 0.01 in   Overcast
4:26 PM 39.2 °F 28.7 °F 39.2 °F 100% 29.81 in 5.0 mi ESE 23.0 mph 33.4 mph 0.01 in Rain Light Rain
4:53 PM 39.9 °F 29.7 °F 39.0 °F 97% 29.82 in 4.0 mi ESE 23.0 mph 32.2 mph 0.01 in   Overcast
5:05 PM 39.2 °F 28.7 °F 39.2 °F 100% 29.78 in 1.8 mi ESE 23.0 mph 35.7 mph 0.00 in Rain Light Rain
5:30 PM 39.2 °F 29.6 °F 39.2 °F 100% 29.80 in 2.5 mi East 19.6 mph 29.9 mph 0.00 in Rain Light Rain
5:45 PM 41.0 °F 33.9 °F 41.0 °F 100% 29.81 in 0.8 mi East 12.7 mph 26.5 mph 0.00 in Rain Light Rain
5:53 PM 41.0 °F 34.7 °F 41.0 °F 100% 29.85 in 0.5 mi East 10.4 mph - 0.01 in Fog , Rain Light Rain
6:23 PM 42.8 °F 33.8 °F 42.8 °F 100% 29.80 in 1.0 mi ESE 21.9 mph 32.2 mph 0.01 in Rain Light Rain
6:36 PM 42.8 °F 34.0 °F 42.8 °F 100% 29.80 in 3.0 mi ESE 20.7 mph 29.9 mph 0.01 in Rain Light Rain
6:53 PM 43.0 °F 34.0 °F 42.1 °F 97% 29.82 in 2.0 mi ESE 21.9 mph 28.8 mph 0.01 in   Overcast
7:09 PM 42.8 °F 34.0 °F 42.8 °F 100% 29.79 in 1.8 mi ESE 20.7 mph 28.8 mph N/A   Overcast
7:51 PM 42.8 °F 35.1 °F 42.8 °F 100% 29.78 in 0.5 mi ESE 16.1 mph - 0.00 in Fog Fog
7:53 PM 43.0 °F 35.4 °F 43.0 °F 100% 29.81 in 0.5 mi ESE 16.1 mph - 0.00 in Fog Fog
8:06 PM 42.8 °F 35.1 °F 42.8 °F 100% 29.77 in 2.0 mi ESE 16.1 mph 21.9 mph N/A   Overcast
8:17 PM 42.8 °F 35.8 °F 42.8 °F 100% 29.77 in 1.0 mi ESE 13.8 mph 20.7 mph N/A   Mist
8:24 PM 42.8 °F 35.4 °F 42.8 °F 100% 29.76 in 0.8 mi ESE 15.0 mph 20.7 mph N/A   Mist
8:42 PM 42.8 °F 35.8 °F 42.8 °F 100% 29.76 in 0.2 mi ESE 13.8 mph - N/A Fog Fog
8:53 PM 43.0 °F 36.8 °F 43.0 °F 100% 29.78 in 0.5 mi ESE 11.5 mph - N/A Fog Fog
9:04 PM 42.8 °F 35.8 °F 42.8 °F 100% 29.75 in 0.2 mi East 13.8 mph - N/A Fog Fog
9:44 PM 44.6 °F 38.1 °F 44.6 °F 100% 29.73 in 0.5 mi East 13.8 mph 21.9 mph N/A Fog Fog
9:53 PM 44.1 °F 38.1 °F 44.1 °F 100% 29.75 in 0.5 mi East 11.5 mph 19.6 mph N/A Fog Fog
10:03 PM 44.6 °F 38.1 °F 44.6 °F 100% 29.72 in 0.2 mi East 13.8 mph - N/A Fog Fog
10:53 PM 44.6 °F 38.8 °F 44.6 °F 100% 29.70 in 0.2 mi East 11.5 mph - N/A Fog Fog
11:53 PM 45.0 °F 39.7 °F 45.0 °F 100% 29.71 in 0.2 mi East 10.4 mph - 0.00 in Fog Fog